Regional Weather Roundup
Issued by NWS

Home | Current Version | Previous Version | Text Only | Print | Product List | Glossary On
Versions: 1 2 3 4 5 6 7 8 9 10 11 12 13 14 15 16 17 18 19 20 21 22 23 24 25 26 27 28 29 30 31 32 33 34 35 36 37 38 39 40 41 42 43 44 45 46 47 48 49 50
000
ASUS46 KSEW 221510
RWRWA

WASHINGTON REGIONAL WEATHER ROUNDUP
NATIONAL WEATHER SERVICE SEATTLE WA
800 AM PDT TUE JUL 22 2014

NOTE:"FAIR" INDICATES FEW OR NO CLOUDS BELOW 12,000 FEET WITH NO
SIGNIFICANT WEATHER AND/OR OBSTRUCTIONS TO VISIBILITY.

WAZ505-507>509-221600-
SEATTLE, TACOMA, EVERETT, AND VICINITY

CITY           SKY/WX    TMP DP  RH WIND       PRES   REMARKS
EVERETT        PTSUNNY   57  51  80 VRB3      30.05R
BOEING FIELD   CLOUDY    62  53  72 CALM      30.04R
RENTON         PTSUNNY   61  55  81 CALM      30.04R
SEATAC AIRPORT CLOUDY    58  52  80 CALM      30.06R
JBLM-MCCHORD   CLOUDY    59  51  76 SW2       30.05R
PUYALLUP       CLOUDY    59  54  82 CALM      30.06R
JBLM-FT LEWIS  CLOUDY    58  52  80 SW1       30.05R
TACOMA NARROWS CLOUDY    58  51  78 CALM      30.04R
$$

WAZ001-503-506-510-514-515-221600-
NORTH INTERIOR

CITY           SKY/WX    TMP DP  RH WIND       PRES   REMARKS
BELLINGHAM     SUNNY     59  53  80 S5        30.03R
FRIDAY HARBOR  MOSUNNY   55  51  86 CALM      30.04R
EASTSOUND      SUNNY     57  52  82 CALM      30.01S
PORT ANGELES   CLOUDY    58  50  75 W5        30.04R
NAS WHIDBEY    PTSUNNY   58  53  84 S3        30.04S
BURLINGTON     PTSUNNY   55  54  94 SE3       30.05R
$$

WAZ020-022-039-040-504-511-512-221600-
SOUTHWEST INTERIOR

CITY           SKY/WX    TMP DP  RH WIND       PRES   REMARKS
SHELTON        CLOUDY    55  50  83 CALM      30.02R
OLYMPIA        CLOUDY    57  51  80 S5        30.05R
CHEHALIS       CLOUDY    59  54  82 CALM      30.05R
KELSO          CLOUDY   N/A N/A N/A CALM      30.07S
VANCOUVER      LGT RAIN  59  56  89 CALM      30.05R FOG
SCAPPOOSE, OR  CLOUDY    60  57  89 S5        30.04R
PORTLAND, OR   LGT RAIN  59  57  93 NW7       30.06R FOG
$$

WAZ021-516-517-221600-
WASHINGTON COAST

CITY           SKY/WX    TMP DP  RH WIND       PRES   REMARKS
FORKS          MOSUNNY   56  52  86 E3        30.04R FOG
HOQUIAM        CLOUDY    54  52  93 NE6       30.05R FOG
ASTORIA, OR    CLOUDY    56  53  90 SE6       30.04R
$$

WAZ019-023-024-040-518-519-221600-
CASCADE MOUNTAINS AND COLUMBIA GORGE

CITY           SKY/WX    TMP DP  RH WIND       PRES   REMARKS
STAMPEDE PASS  NOT AVBL
TROUTDALE, OR  LGT RAIN  62  59  90 SW3       30.04R FOG
THE DALLES, OR CLOUDY    64  58  80 NW9       30.02R
$$

WAZ026-027-041>044-520-521-221600-
EAST SLOPES

CITY           SKY/WX    TMP DP  RH WIND       PRES   REMARKS
OMAK           LGT RAIN  63  52  67 CALM      30.04R
WENATCHEE      LGT RAIN  66  57  72 CALM      30.02R
ELLENSBURG     LGT RAIN  63  57  81 CALM      30.04R
YAKIMA         LGT RAIN  63  55  75 W7        30.03R
$$

WAZ028-034-035-221600-
COLUMBIA BASIN

CITY           SKY/WX    TMP DP  RH WIND       PRES   REMARKS
EPHRATA        CLOUDY    70  39  32 NE6       30.00R
MOSES LAKE     CLOUDY    68  51  54 SE6       30.02R
PASCO          CLOUDY    69  56  62 N5        30.00R
HERMISTON, OR  CLOUDY    70  51  51 CALM      30.01R
$$

WAZ036>038-221600-
NORTHEAST WASHINGTON

CITY           SKY/WX    TMP DP  RH WIND       PRES   REMARKS
SPOKANE GEIGER LGT RAIN  61  49  64 SE7       30.09R
SPOKANE FELTS  CLOUDY    61  58  90 NE5       30.10R
FAIRCHILD AFB  LGT RAIN  61  51  69 E6        30.09R
COEURDALENE,ID CLOUDY    63  52  67 MISG      30.12R
DEER PARK      CLOUDY    59  54  83 E7        30.10R
$$

WAZ029>033-221600-
SOUTHEAST WASHINGTON

CITY           SKY/WX    TMP DP  RH WIND       PRES   REMARKS
PULLMAN        CLOUDY    61  50  67 N5        30.11R
LEWISTON, ID   CLOUDY    71  47  42 N3        30.05R
WALLA WALLA    CLOUDY    65  55  70 CALM      30.06R
PENDLETON, OR  CLOUDY    67  49  52 E3        30.04R
$$


USA.gov is the U.S. government's official web portal to all federal, state and local government web resources and services.